Time,TemperatureF,DewpointF,PressureIn,WindDirection,WindDirectionDegrees,WindSpeedMPH,WindSpeedGustMPH,Humidity,HourlyPrecipIn,Conditions,Clouds,dailyrainin,SoftwareType,DateUTC
2013-08-28 00:05:00,67.3,54.7,29.90,North,-999,-999.0,-999.0,64,-99.99,,,-99.99,Acu-Link.com,2013-08-28 07:05:00,
2013-08-28 00:20:00,67.6,55.0,29.90,North,-999,-999.0,-999.0,64,-99.99,,,-99.99,Acu-Link.com,2013-08-28 07:20:00,
2013-08-28 00:36:00,67.5,54.8,29.92,North,-999,-999.0,-999.0,64,-99.99,,,-99.99,Acu-Link.com,2013-08-28 07:36:00,
2013-08-28 00:51:00,66.9,54.3,29.90,North,-999,-999.0,-999.0,64,-99.99,,,-99.99,Acu-Link.com,2013-08-28 07:51:00,
2013-08-28 01:06:00,66.6,54.0,29.90,North,-999,-999.0,-999.0,64,-99.99,,,-99.99,Acu-Link.com,2013-08-28 08:06:00,
2013-08-28 01:21:00,66.6,54.4,29.90,North,-999,-999.0,-999.0,65,-99.99,,,-99.99,Acu-Link.com,2013-08-28 08:21:00,
2013-08-28 01:37:00,66.2,54.1,29.91,North,-999,-999.0,-999.0,65,-99.99,,,-99.99,Acu-Link.com,2013-08-28 08:37:00,
2013-08-28 01:52:00,65.8,54.2,29.89,North,-999,-999.0,-999.0,66,-99.99,,,-99.99,Acu-Link.com,2013-08-28 08:52:00,
2013-08-28 02:07:00,65.5,53.8,29.90,North,-999,-999.0,-999.0,66,-99.99,,,-99.99,Acu-Link.com,2013-08-28 09:07:00,
2013-08-28 02:22:00,65.8,53.3,29.91,North,-999,-999.0,-999.0,64,-99.99,,,-99.99,Acu-Link.com,2013-08-28 09:22:00,
2013-08-28 02:37:00,65.5,52.5,29.89,North,-999,-999.0,-999.0,63,-99.99,,,-99.99,Acu-Link.com,2013-08-28 09:37:00,
2013-08-28 02:52:00,65.1,52.2,29.89,North,-999,-999.0,-999.0,63,-99.99,,,-99.99,Acu-Link.com,2013-08-28 09:52:00,
2013-08-28 03:08:00,64.4,52.0,29.90,North,-999,-999.0,-999.0,64,-99.99,,,-99.99,Acu-Link.com,2013-08-28 10:08:00,
2013-08-28 03:23:00,64.4,52.0,29.89,North,-999,-999.0,-999.0,64,-99.99,,,-99.99,Acu-Link.com,2013-08-28 10:23:00,
2013-08-28 03:38:00,64.0,53.3,29.89,North,-999,-999.0,-999.0,68,-99.99,,,-99.99,Acu-Link.com,2013-08-28 10:38:00,
2013-08-28 03:53:00,64.2,53.0,29.90,North,-999,-999.0,-999.0,67,-99.99,,,-99.99,Acu-Link.com,2013-08-28 10:53:00,
2013-08-28 04:08:00,64.0,52.0,29.88,North,-999,-999.0,-999.0,65,-99.99,,,-99.99,Acu-Link.com,2013-08-28 11:08:00,
2013-08-28 04:43:00,63.1,51.6,29.89,North,-999,-999.0,-999.0,66,-99.99,,,-99.99,Acu-Link.com,2013-08-28 11:43:00,
2013-08-28 04:58:00,63.1,52.4,29.91,North,-999,-999.0,-999.0,68,-99.99,,,-99.99,Acu-Link.com,2013-08-28 11:58:00,
2013-08-28 05:13:00,63.1,52.8,29.89,North,-999,-999.0,-999.0,69,-99.99,,,-99.99,Acu-Link.com,2013-08-28 12:13:00,
2013-08-28 05:29:00,63.0,53.0,29.90,North,-999,-999.0,-999.0,70,-99.99,,,-99.99,Acu-Link.com,2013-08-28 12:29:00,
2013-08-28 05:44:00,62.8,52.8,29.89,North,-999,-999.0,-999.0,70,-99.99,,,-99.99,Acu-Link.com,2013-08-28 12:44:00,
2013-08-28 05:59:00,62.6,53.1,29.89,North,-999,-999.0,-999.0,71,-99.99,,,-99.99,Acu-Link.com,2013-08-28 12:59:00,
2013-08-28 06:14:00,62.6,52.7,29.92,North,-999,-999.0,-999.0,70,-99.99,,,-99.99,Acu-Link.com,2013-08-28 13:14:00,
2013-08-28 06:29:00,62.6,53.4,29.93,North,-999,-999.0,-999.0,72,-99.99,,,-99.99,Acu-Link.com,2013-08-28 13:29:00,
2013-08-28 06:44:00,62.8,53.6,29.91,North,-999,-999.0,-999.0,72,-99.99,,,-99.99,Acu-Link.com,2013-08-28 13:44:00,
2013-08-28 07:00:00,63.1,54.0,29.92,North,-999,-999.0,-999.0,72,-99.99,,,-99.99,Acu-Link.com,2013-08-28 14:00:00,
2013-08-28 07:15:00,63.0,53.4,29.94,North,-999,-999.0,-999.0,71,-99.99,,,-99.99,Acu-Link.com,2013-08-28 14:15:00,
2013-08-28 07:30:00,63.7,54.1,29.95,North,-999,-999.0,-999.0,71,-99.99,,,-99.99,Acu-Link.com,2013-08-28 14:30:00,
2013-08-28 07:45:00,64.9,55.3,29.95,North,-999,-999.0,-999.0,71,-99.99,,,-99.99,Acu-Link.com,2013-08-28 14:45:00,
2013-08-28 08:00:00,65.7,56.0,29.95,North,-999,-999.0,-999.0,71,-99.99,,,-99.99,Acu-Link.com,2013-08-28 15:00:00,
2013-08-28 08:15:00,66.6,56.5,29.97,North,-999,-999.0,-999.0,70,-99.99,,,-99.99,Acu-Link.com,2013-08-28 15:15:00,
2013-08-28 08:31:00,69.1,56.4,29.97,North,-999,-999.0,-999.0,64,-99.99,,,-99.99,Acu-Link.com,2013-08-28 15:31:00,
2013-08-28 08:46:00,72.1,57.0,29.95,North,-999,-999.0,-999.0,59,-99.99,,,-99.99,Acu-Link.com,2013-08-28 15:46:00,
2013-08-28 09:01:00,78.3,56.4,29.95,North,-999,-999.0,-999.0,47,-99.99,,,-99.99,Acu-Link.com,2013-08-28 16:01:00,
2013-08-28 09:16:00,83.1,57.6,29.96,North,-999,-999.0,-999.0,42,-99.99,,,-99.99,Acu-Link.com,2013-08-28 16:16:00,
2013-08-28 09:31:00,86.4,57.0,29.96,North,-999,-999.0,-999.0,37,-99.99,,,-99.99,Acu-Link.com,2013-08-28 16:31:00,
2013-08-28 09:47:00,88.3,56.4,29.96,North,-999,-999.0,-999.0,34,-99.99,,,-99.99,Acu-Link.com,2013-08-28 16:47:00,
2013-08-28 10:02:00,88.9,56.8,29.97,North,-999,-999.0,-999.0,34,-99.99,,,-99.99,Acu-Link.com,2013-08-28 17:02:00,
2013-08-28 10:17:00,90.5,56.6,29.98,North,-999,-999.0,-999.0,32,-99.99,,,-99.99,Acu-Link.com,2013-08-28 17:17:00,
2013-08-28 10:32:00,91.6,56.6,29.97,North,-999,-999.0,-999.0,31,-99.99,,,-99.99,Acu-Link.com,2013-08-28 17:32:00,
2013-08-28 10:47:00,91.8,56.8,29.97,North,-999,-999.0,-999.0,31,-99.99,,,-99.99,Acu-Link.com,2013-08-28 17:47:00,
2013-08-28 11:03:00,92.8,57.7,29.98,North,-999,-999.0,-999.0,31,-99.99,,,-99.99,Acu-Link.com,2013-08-28 18:03:00,
2013-08-28 11:18:00,92.5,56.5,29.97,North,-999,-999.0,-999.0,30,-99.99,,,-99.99,Acu-Link.com,2013-08-28 18:18:00,
2013-08-28 11:33:00,93.4,57.3,29.99,North,-999,-999.0,-999.0,30,-99.99,,,-99.99,Acu-Link.com,2013-08-28 18:33:00,
2013-08-28 11:48:00,93.6,57.4,29.99,North,-999,-999.0,-999.0,30,-99.99,,,-99.99,Acu-Link.com,2013-08-28 18:48:00,
2013-08-28 12:04:00,93.6,57.4,29.97,North,-999,-999.0,-999.0,30,-99.99,,,-99.99,Acu-Link.com,2013-08-28 19:04:00,
2013-08-28 12:20:00,93.4,57.3,29.97,North,-999,-999.0,-999.0,30,-99.99,,,-99.99,Acu-Link.com,2013-08-28 19:20:00,
2013-08-28 12:36:00,94.1,57.9,29.98,North,-999,-999.0,-999.0,30,-99.99,,,-99.99,Acu-Link.com,2013-08-28 19:36:00,
2013-08-28 12:51:00,93.0,56.0,29.96,North,-999,-999.0,-999.0,29,-99.99,,,-99.99,Acu-Link.com,2013-08-28 19:51:00,
2013-08-28 13:06:00,93.4,56.3,29.96,North,-999,-999.0,-999.0,29,-99.99,,,-99.99,Acu-Link.com,2013-08-28 20:06:00,
2013-08-28 13:21:00,94.3,57.1,29.96,North,-999,-999.0,-999.0,29,-99.99,,,-99.99,Acu-Link.com,2013-08-28 20:21:00,
2013-08-28 13:36:00,94.1,56.9,29.97,North,-999,-999.0,-999.0,29,-99.99,,,-99.99,Acu-Link.com,2013-08-28 20:36:00,
2013-08-28 13:53:00,93.0,56.0,29.95,North,-999,-999.0,-999.0,29,-99.99,,,-99.99,Acu-Link.com,2013-08-28 20:53:00,
2013-08-28 14:08:00,91.9,55.1,29.95,North,-999,-999.0,-999.0,29,-99.99,,,-99.99,Acu-Link.com,2013-08-28 21:08:00,
2013-08-28 14:23:00,92.5,55.6,29.95,North,-999,-999.0,-999.0,29,-99.99,,,-99.99,Acu-Link.com,2013-08-28 21:23:00,
2013-08-28 14:41:00,91.6,54.8,29.94,North,-999,-999.0,-999.0,29,-99.99,,,-99.99,Acu-Link.com,2013-08-28 21:41:00,
2013-08-28 14:57:00,91.2,54.5,29.94,North,-999,-999.0,-999.0,29,-99.99,,,-99.99,Acu-Link.com,2013-08-28 21:57:00,
2013-08-28 15:12:00,90.9,54.2,29.95,North,-999,-999.0,-999.0,29,-99.99,,,-99.99,Acu-Link.com,2013-08-28 22:12:00,
2013-08-28 15:29:00,89.2,52.8,29.92,North,-999,-999.0,-999.0,29,-99.99,,,-99.99,Acu-Link.com,2013-08-28 22:29:00,
2013-08-28 15:44:00,89.2,53.7,29.92,North,-999,-999.0,-999.0,30,-99.99,,,-99.99,Acu-Link.com,2013-08-28 22:44:00,
2013-08-28 16:00:00,88.7,53.2,29.92,North,-999,-999.0,-999.0,30,-99.99,,,-99.99,Acu-Link.com,2013-08-28 23:00:00,
2013-08-28 16:18:00,88.0,52.6,29.93,North,-999,-999.0,-999.0,30,-99.99,,,-99.99,Acu-Link.com,2013-08-28 23:18:00,
2013-08-28 16:33:00,87.6,53.2,29.94,North,-999,-999.0,-999.0,31,-99.99,,,-99.99,Acu-Link.com,2013-08-28 23:33:00,
2013-08-28 16:48:00,86.5,52.3,29.92,North,-999,-999.0,-999.0,31,-99.99,,,-99.99,Acu-Link.com,2013-08-28 23:48:00,
2013-08-28 17:04:00,85.8,53.4,29.92,North,-999,-999.0,-999.0,33,-99.99,,,-99.99,Acu-Link.com,2013-08-29 00:04:00,
2013-08-28 17:20:00,84.0,53.4,29.94,North,-999,-999.0,-999.0,35,-99.99,,,-99.99,Acu-Link.com,2013-08-29 00:20:00,
2013-08-28 17:36:00,82.6,53.6,29.93,North,-999,-999.0,-999.0,37,-99.99,,,-99.99,Acu-Link.com,2013-08-29 00:36:00,
2013-08-28 17:52:00,82.2,54.1,29.95,North,-999,-999.0,-999.0,38,-99.99,,,-99.99,Acu-Link.com,2013-08-29 00:52:00,
2013-08-28 18:08:00,82.0,54.6,29.92,North,-999,-999.0,-999.0,39,-99.99,,,-99.99,Acu-Link.com,2013-08-29 01:08:00,
2013-08-28 18:24:00,81.0,54.3,29.95,North,-999,-999.0,-999.0,40,-99.99,,,-99.99,Acu-Link.com,2013-08-29 01:24:00,
2013-08-28 18:39:00,79.5,53.7,29.94,North,-999,-999.0,-999.0,41,-99.99,,,-99.99,Acu-Link.com,2013-08-29 01:39:00,
2013-08-28 18:54:00,78.6,53.6,29.94,North,-999,-999.0,-999.0,42,-99.99,,,-99.99,Acu-Link.com,2013-08-29 01:54:00,
2013-08-28 19:09:00,77.7,53.4,29.94,North,-999,-999.0,-999.0,43,-99.99,,,-99.99,Acu-Link.com,2013-08-29 02:09:00,
2013-08-28 19:24:00,77.4,53.1,29.94,North,-999,-999.0,-999.0,43,-99.99,,,-99.99,Acu-Link.com,2013-08-29 02:24:00,
2013-08-28 19:39:00,77.2,52.9,29.96,North,-999,-999.0,-999.0,43,-99.99,,,-99.99,Acu-Link.com,2013-08-29 02:39:00,
2013-08-28 19:55:00,76.5,53.5,29.95,North,-999,-999.0,-999.0,45,-99.99,,,-99.99,Acu-Link.com,2013-08-29 02:55:00,
2013-08-28 20:10:00,75.7,53.5,29.97,North,-999,-999.0,-999.0,46,-99.99,,,-99.99,Acu-Link.com,2013-08-29 03:10:00,
2013-08-28 20:25:00,75.0,54.0,29.96,North,-999,-999.0,-999.0,48,-99.99,,,-99.99,Acu-Link.com,2013-08-29 03:25:00,
2013-08-28 20:40:00,74.7,53.7,29.97,North,-999,-999.0,-999.0,48,-99.99,,,-99.99,Acu-Link.com,2013-08-29 03:40:00,
2013-08-28 20:55:00,74.1,53.7,29.98,North,-999,-999.0,-999.0,49,-99.99,,,-99.99,Acu-Link.com,2013-08-29 03:55:00,
2013-08-28 21:10:00,73.4,53.6,30.00,North,-999,-999.0,-999.0,50,-99.99,,,-99.99,Acu-Link.com,2013-08-29 04:10:00,
2013-08-28 21:26:00,72.9,54.2,29.99,North,-999,-999.0,-999.0,52,-99.99,,,-99.99,Acu-Link.com,2013-08-29 04:26:00,
2013-08-28 21:41:00,73.2,54.5,29.99,North,-999,-999.0,-999.0,52,-99.99,,,-99.99,Acu-Link.com,2013-08-29 04:41:00,
2013-08-28 21:56:00,73.2,54.5,30.00,North,-999,-999.0,-999.0,52,-99.99,,,-99.99,Acu-Link.com,2013-08-29 04:56:00,
2013-08-28 22:11:00,72.5,54.4,30.00,North,-999,-999.0,-999.0,53,-99.99,,,-99.99,Acu-Link.com,2013-08-29 05:11:00,
2013-08-28 22:26:00,72.1,54.6,30.01,North,-999,-999.0,-999.0,54,-99.99,,,-99.99,Acu-Link.com,2013-08-29 05:26:00,
2013-08-28 22:41:00,71.1,52.5,29.99,North,-999,-999.0,-999.0,52,-99.99,,,-99.99,Acu-Link.com,2013-08-29 05:41:00,
2013-08-28 22:57:00,71.1,52.0,30.02,North,-999,-999.0,-999.0,51,-99.99,,,-99.99,Acu-Link.com,2013-08-29 05:57:00,
2013-08-28 23:12:00,71.6,53.0,29.99,North,-999,-999.0,-999.0,52,-99.99,,,-99.99,Acu-Link.com,2013-08-29 06:12:00,
2013-08-28 23:27:00,71.1,52.5,30.00,North,-999,-999.0,-999.0,52,-99.99,,,-99.99,Acu-Link.com,2013-08-29 06:27:00,
2013-08-28 23:42:00,70.9,52.4,29.99,North,-999,-999.0,-999.0,52,-99.99,,,-99.99,Acu-Link.com,2013-08-29 06:42:00,
2013-08-28 23:57:00,70.9,52.4,29.99,North,-999,-999.0,-999.0,52,-99.99,,,-99.99,Acu-Link.com,2013-08-29 06:57:00,